Date String (YYYY-MM-DD hh:mm:ss) UTC,Instrument flags,Ambient pressure (hPa),Sample flow (lpm),Bypass flow (lpm),Sample temperature (°C),Ambient temperature (°C),ASC tube jacket temperature (°C),LED temperature (°C),Box temperature (°C),Sample RH (%),Span deviation,Mass concentration (μg/m³),Mass concentration (μg/m³),Mass concentration (μg/m³)
DateTimeUTC,F1_M11,P_M11,Q1_M11,Q2_M11,T1_M11,T2_M11,T3_M11,T4_M11,T5_M11,U1_M11,ZSPAN_M11,X0_M11,X2_M11,X1_M11
2022-10-07 03:00:00,,0834.7,5.02,0.00,30.1,28.9,00.0,38.8,32.0,15.0,0000.0,0010.42,0004.52,0003.96
2022-10-07 03:01:00,,0834.7,4.99,0.00,30.1,28.7,00.0,38.8,32.0,15.4,0000.0,0010.63,0004.53,0003.95
2022-10-07 03:02:00,,0834.7,5.01,0.00,30.1,27.3,00.0,38.8,31.8,15.8,0000.0,0010.49,0004.52,0003.96
2022-10-07 03:03:00,,0834.7,5.02,0.00,30.0,26.5,00.0,38.7,31.7,15.9,0000.0,0010.35,0004.52,0003.98
2022-10-07 03:04:00,,0834.7,4.99,0.00,29.9,26.5,00.0,38.7,31.5,15.8,0000.0,0010.38,0004.52,0003.99
2022-10-07 03:05:00,,0834.8,4.99,0.00,29.8,26.8,00.0,38.6,31.4,15.8,0000.0,0010.30,0004.49,0004.00
2022-10-07 03:06:00,,0834.7,5.00,0.00,29.8,27.1,00.0,38.6,31.4,15.8,0000.0,0009.95,0004.51,0004.00
2022-10-07 03:07:00,,0834.8,5.00,0.00,29.7,27.4,00.0,38.6,31.4,16.5,0000.0,0010.73,0004.57,0004.03
2022-10-07 03:08:00,,0834.8,5.00,0.00,29.7,27.6,00.0,38.5,31.4,16.6,0000.0,0011.11,0004.56,0004.05
2022-10-07 03:09:00,,0834.8,5.00,0.00,29.7,27.8,00.0,38.5,31.4,16.1,0000.0,0011.22,0004.57,0004.05
2022-10-07 03:10:00,,0834.8,4.99,0.00,29.7,27.9,00.0,38.5,31.5,15.9,0000.0,0011.60,0004.57,0004.05
2022-10-07 03:11:00,,0834.9,5.01,0.00,29.7,28.1,00.0,38.5,31.5,15.6,0000.0,0011.42,0004.62,0004.04
2022-10-07 03:12:00,,0834.9,4.99,0.00,29.7,28.2,00.0,38.5,31.5,15.6,0000.0,0011.14,0004.64,0004.03
2022-10-07 03:13:00,,0834.9,5.01,0.00,29.7,28.3,00.0,38.5,31.5,15.4,0000.0,0011.12,0004.64,0004.02
2022-10-07 03:14:00,,0834.9,4.99,0.00,29.7,28.3,00.0,38.5,31.6,15.5,0000.0,0011.52,0004.59,0004.00
2022-10-07 03:15:00,,0834.9,5.00,0.00,29.7,28.4,00.0,38.5,31.6,15.6,0000.0,0011.69,0004.60,0003.99
2022-10-07 03:16:00,,0834.9,5.00,0.00,29.8,28.4,00.0,38.5,31.6,15.4,0000.0,0011.31,0004.60,0003.98
2022-10-07 03:17:00,,0834.9,4.98,0.00,29.8,28.5,00.0,38.5,31.6,15.4,0000.0,0011.36,0004.57,0003.96
2022-10-07 03:18:00,,0835.0,5.01,0.00,29.8,28.5,00.0,38.5,31.7,15.5,0000.0,0010.80,0004.49,0003.93
2022-10-07 03:19:00,,0834.9,4.99,0.00,29.8,28.5,00.0,38.5,31.7,15.5,0000.0,0011.70,0004.51,0003.90
2022-10-07 03:20:00,,0835.0,5.01,0.00,29.8,28.6,00.0,38.5,31.7,15.4,0000.0,0012.56,0004.53,0003.88
2022-10-07 03:21:00,,0835.0,5.00,0.00,29.8,28.6,00.0,38.5,31.7,15.3,0000.0,0012.25,0004.57,0003.87
2022-10-07 03:22:00,,0835.0,5.00,0.00,29.9,28.7,00.0,38.5,31.7,15.4,0000.0,0011.36,0004.52,0003.86
2022-10-07 03:23:00,,0834.9,5.00,0.00,29.9,28.6,00.0,38.6,31.7,16.1,0000.0,0011.53,0004.51,0003.86
2022-10-07 03:24:00,,0834.9,5.01,0.00,29.9,28.7,00.0,38.6,31.8,15.5,0000.0,0012.02,0004.49,0003.85
2022-10-07 03:25:00,,0835.0,4.99,0.00,29.9,28.7,00.0,38.6,31.7,15.2,0000.0,0011.59,0004.47,0003.83
2022-10-07 03:26:00,,0835.0,5.00,0.00,29.9,28.7,00.0,38.6,31.8,15.3,0000.0,0011.24,0004.43,0003.80
2022-10-07 03:27:00,,0835.0,5.00,0.00,29.9,28.8,00.0,38.6,31.9,15.5,0000.0,0011.47,0004.42,0003.78
2022-10-07 03:28:00,,0835.0,4.99,0.00,30.0,28.8,00.0,38.6,31.8,15.5,0000.0,0011.45,0004.42,0003.78
2022-10-07 03:29:00,,0835.0,5.01,0.00,30.0,28.8,00.0,38.7,31.8,15.5,0000.0,0011.36,0004.45,0003.78
2022-10-07 03:30:00,,0835.0,4.99,0.00,30.0,28.8,00.0,38.7,31.9,15.6,0000.0,0010.57,0004.43,0003.77
2022-10-07 03:31:00,,0835.1,5.01,0.00,30.0,28.8,00.0,38.7,31.9,15.2,0000.0,0009.18,0004.40,0003.76
2022-10-07 03:32:00,,0835.1,4.99,0.00,30.0,28.8,00.0,38.7,31.9,15.2,0000.0,0009.08,0004.38,0003.75
2022-10-07 03:33:00,,0835.0,5.00,0.00,30.0,28.8,00.0,38.7,31.9,15.5,0000.0,0009.11,0004.37,0003.75
2022-10-07 03:34:00,,0835.1,5.01,0.00,30.1,28.9,00.0,38.7,31.9,15.2,0000.0,0009.03,0004.33,0003.74
2022-10-07 03:35:00,,0835.1,4.99,0.00,30.1,28.9,00.0,38.7,32.0,15.1,0000.0,0008.61,0004.31,0003.73
2022-10-07 03:36:00,,0835.1,5.01,0.00,30.1,28.9,00.0,38.8,32.0,15.3,0000.0,0009.41,0004.32,0003.72
2022-10-07 03:37:00,,0835.2,4.99,0.00,30.1,28.9,00.0,38.8,32.0,15.1,0000.0,0010.46,0004.33,0003.71
2022-10-07 03:38:00,,0835.1,5.00,0.00,30.1,28.9,00.0,38.8,32.0,15.2,0000.0,0010.28,0004.35,0003.70
2022-10-07 03:39:00,,0835.2,4.99,0.00,30.1,28.9,00.0,38.8,32.0,15.3,0000.0,0010.29,0004.36,0003.70
2022-10-07 03:40:00,,0835.2,5.00,0.00,30.2,29.0,00.0,38.8,32.0,15.4,0000.0,0010.20,0004.33,0003.70
2022-10-07 03:41:00,,0835.2,4.99,0.00,30.2,29.0,00.0,38.8,32.0,15.3,0000.0,0010.02,0004.31,0003.70
2022-10-07 03:42:00,,0835.2,5.01,0.00,30.2,29.0,00.0,38.9,32.1,15.1,0000.0,0010.12,0004.32,0003.71
2022-10-07 03:43:00,,0835.2,4.99,0.00,30.2,28.9,00.0,38.9,32.1,14.8,0000.0,0010.25,0004.32,0003.70
2022-10-07 03:44:00,,0835.3,5.01,0.00,30.2,27.5,00.0,38.9,32.0,14.8,0000.0,0010.64,0004.31,0003.69
2022-10-07 03:45:00,,0835.2,5.00,0.00,30.1,26.5,00.0,38.8,31.8,15.0,0000.0,0010.93,0004.33,0003.69
2022-10-07 03:46:00,,0835.1,5.00,0.00,30.0,26.5,00.0,38.8,31.6,15.3,0000.0,0011.07,0004.35,0003.70
2022-10-07 03:47:00,,0835.2,5.00,0.00,29.9,26.7,00.0,38.7,31.5,15.1,0000.0,0010.34,0004.36,0003.70
2022-10-07 03:48:00,,0835.3,4.99,0.00,29.9,27.1,00.0,38.7,31.5,14.8,0000.0,0009.34,0004.33,0003.69
2022-10-07 03:49:00,,0835.3,4.99,0.00,29.8,27.4,00.0,38.6,31.5,15.0,0000.0,0009.33,0004.32,0003.69
2022-10-07 03:50:00,,0835.3,5.00,0.00,29.8,27.6,00.0,38.6,31.5,15.4,0000.0,0009.29,0004.29,0003.70
2022-10-07 03:51:00,,0835.3,4.99,0.00,29.8,27.8,00.0,38.6,31.5,15.6,0000.0,0009.30,0004.30,0003.70
2022-10-07 03:52:00,,0835.3,4.99,0.00,29.8,28.0,00.0,38.6,31.5,15.7,0000.0,0009.36,0004.32,0003.69
2022-10-07 03:53:00,,0835.3,5.00,0.00,29.8,28.1,00.0,38.6,31.6,15.9,0000.0,0009.28,0004.31,0003.70
2022-10-07 03:54:00,,0835.2,5.00,0.00,29.8,28.2,00.0,38.6,31.6,15.9,0000.0,0009.57,0004.29,0003.71
2022-10-07 03:55:00,,0835.2,4.99,0.00,29.8,28.3,00.0,38.6,31.6,16.1,0000.0,0009.71,0004.31,0003.71
2022-10-07 03:56:00,,0835.3,5.01,0.00,29.8,28.4,00.0,38.6,31.6,16.0,0000.0,0009.10,0004.32,0003.72
2022-10-07 03:57:00,,0835.3,4.99,0.00,29.8,28.4,00.0,38.6,31.7,15.6,0000.0,0008.95,0004.30,0003.74
2022-10-07 03:58:00,,0835.3,5.01,0.00,29.8,28.5,00.0,38.6,31.7,15.7,0000.0,0008.98,0004.30,0003.76
2022-10-07 03:59:00,,0835.4,4.99,0.00,29.8,28.5,00.0,38.6,31.7,15.7,0000.0,0009.19,0004.30,0003.77
